Regional Weather Roundup
Issued by NWS Columbia, SC

Home | Current Version | Previous Version | Text Only | Print | Product List | Glossary On
Versions: 1 2 3 4 5 6 7 8 9 10 11 12 13 14 15 16 17 18 19 20 21 22 23 24 25 26 27 28 29 30 31 32 33 34 35 36 37 38 39 40 41 42 43 44 45 46 47 48 49 50
000
ASUS42 KCAE 240210
RWRCAE
REGIONAL WEATHER ROUNDUP
NATIONAL WEATHER SERVICE COLUMBIA SC
1000 PM EDT WED JUL 23 2014

NOTE: "FAIR" INDICATES FEW OR NO CLOUDS BELOW 12,000 FEET WITH NO
SIGNIFICANT WEATHER AND/OR OBSTRUCTIONS TO VISIBILITY.

NOT ALL STATIONS ARE QUALITY CONTROLLED BY THE NATIONAL
WEATHER SERVICE. USE DATA WITH CAUTION...ESPECIALLY
DEWPOINT OBSERVATIONS.

SCZ001>056-GAZ040-063>065-077-240300-
...UPSTATE SOUTH CAROLINA...

CITY           SKY/WX    TMP DP  RH WIND       PRES   REMARKS
ANDERSON       PTCLDY    78  70  76 CALM      29.98S
LIBERTY        FAIR      73  32  22 CALM      29.99F
SPARTANBURG    FAIR      77  72  83 CALM      29.97F
CLEMSON        PTCLDY    76  69  79 N3        30.00S
GREENVILLE     PTCLDY    75  71  87 W5        30.00S
GREENWOOD      CLEAR     79  70  74 S6        29.98F
GREER          PTCLDY    74  71  91 SW6       29.97F
ROCK HILL      CLEAR     75  71  87 CALM      29.97S
CHESTER        FAIR      79  77  94 CALM      29.98S
LAURENS        FAIR      81  79  94 SW3       29.98S


...CENTRAL SOUTH CAROLINA...

CITY           SKY/WX    TMP DP  RH WIND       PRES   REMARKS
COLUMBIA APT   PTCLDY    84  71  65 SW3       29.95F
COLUMBIA OWENS PTCLDY    83  71  67 S3        29.96F
DARLINGTON     CLEAR     79  73  83 E3        29.96S
FLORENCE       CLEAR     80  75  84 S8        29.95S
MCENTIRE ANGB  PTCLDY    78  76  92 S6        29.97S
ORANGEBURG     CLEAR     80  73  79 S5        29.98S
SUMTER SHAW    PTCLDY    81  76  86 S9        29.95S
NEWBERRY       FAIR      81  72  74 S5        29.99F
AIKEN          FAIR      77  73  88 CALM      30.01S
BARNWELL       FAIR      81  73  78 CALM      29.98S
MANNING        FAIR      82  75  78 S3        29.97S
CAMDEN         FAIR      81  73  78 S6        29.97S
LANCASTER      FAIR      77  77 100 CALM      29.96F
WINNSBORO      FAIR      81  72  74 S6        29.97S


...EASTERN AND COASTAL SOUTH CAROLINA...

CITY           SKY/WX    TMP DP  RH WIND       PRES   REMARKS
MYRTLE BEACH   CLEAR     81  73  78 SW6       29.97S
N MYRTLE BCH   MOCLDY    81  75  82 SW14      29.97S
CONWAY         FAIR      77  77 100 S5        29.97S
MARION         FAIR      79  73  83 S6        29.96S
HARTSVILLE     FAIR      79  63  57 CALM      29.97S
FLORENCE       CLEAR     80  75  84 S8        29.95S
DARLINGTON     CLEAR     79  73  83 E3        29.96S
CHARLESTON APT PTCLDY    80  75  84 S5        29.99S
MOUNT PLEASANT FAIR      81  75  83 SW7       29.99S
WALTERBORO     PTCLDY    79 N/A N/A S6        29.99S
BEAUFORT       PTCLDY    83  76  79 SW6       29.98F


...EASTERN GEORGIA...

CITY           SKY/WX    TMP DP  RH WIND       PRES   REMARKS
AUGUSTA BUSH F PTCLDY    80  71  74 CALM      29.96F
AUGUSTA DANIEL LGT RAIN  79  72  79 VRB3      29.98F
THOMSON        CLEAR     79  78  98 CALM      30.02R
WASHINGTON     FAIR      81  79  94 CALM      29.99R
CLAXTON        FAIR      82  79  89 CALM      29.98R
SYLVANIA       PTCLDY    82  79  89 S5        29.99S
STATESBORO     PTCLDY    82  77  86 S6        29.98R
SAVANNAH       MOCLDY    82  75  79 S6        29.99S


...SOUTHERN NORTH CAROLINA...

CITY           SKY/WX    TMP DP  RH WIND       PRES   REMARKS
CHARLOTTE      PTCLDY    76  69  79 CALM      29.97S
MONROE         CLEAR     78  71  79 SW3       29.95S
WADESBORO      CLEAR     80  73  77 CALM      29.94R
ROCKINGHAM       N/A     81  73  78 SW5       29.94S
RUTHERFORDTON  PTCLDY    72  72  99 S3        29.99S
ASHEVILLE      CLOUDY    73  69  87 CALM      30.05F

$$


USA.gov is the U.S. government's official web portal to all federal, state and local government web resources and services.